| time (UTC) | temp C | wind direction | speed KPH | gust KPH | rain 1hr cm | rain 24hr cm | rain mn cm | humidity % | barometer mb |
| 20260508085004 | 13 | 163 | 3.2 | 11.3 | 0.00 | 0.00 | 0.00 | 58 | 1028.2 |
| 20260508084504 | 13 | 161 | 3.2 | 8.0 | 0.00 | 0.00 | 0.00 | 60 | 1028.2 |
| 20260508084003 | 13 | 180 | 3.2 | 9.7 | 0.00 | 0.00 | 0.00 | 59 | 1028.2 |
| 20260508083503 | 13 | 185 | 3.2 | 9.7 | 0.00 | 0.00 | 0.00 | 59 | 1028.2 |
| 20260508083003 | 13 | 178 | 3.2 | 8.0 | 0.00 | 0.00 | 0.00 | 62 | 1028.2 |
| 20260508082503 | 12 | 174 | 3.2 | 8.0 | 0.00 | 0.00 | 0.00 | 62 | 1028.2 |
| 20260508082003 | 12 | 157 | 3.2 | 9.7 | 0.00 | 0.00 | 0.00 | 64 | 1028.2 |
| 20260508081504 | 12 | 145 | 3.2 | 9.7 | 0.00 | 0.00 | 0.00 | 65 | 1028.2 |
| 20260508081004 | 12 | 146 | 3.2 | 8.0 | 0.00 | 0.00 | 0.00 | 65 | 1028.2 |
| 20260508080503 | 12 | 140 | 3.2 | 9.7 | 0.00 | 0.00 | 0.00 | 68 | 1028.2 |
| 20260508080211 | 12 | 139 | 3.2 | 9.7 | 0.00 | 0.00 | 0.00 | 67 | 1028.2 |
| 20260508075711 | 11 | 145 | 3.2 | 8.0 | 0.00 | 0.00 | 0.00 | 68 | 1028.2 |
| 20260508075003 | 11 | 151 | 3.2 | 9.7 | 0.00 | 0.00 | 0.00 | 70 | 1028.2 |
| 20260508074503 | 11 | 156 | 3.2 | 12.9 | 0.00 | 0.00 | 0.00 | 71 | 1028.2 |
| 20260508074003 | 11 | 145 | 4.8 | 12.9 | 0.00 | 0.00 | 0.00 | 73 | 1028.2 |
| 20260508073711 | 11 | 142 | 4.8 | 12.9 | 0.00 | 0.00 | 0.00 | 73 | 1028.2 |
| 20260508073003 | 11 | 135 | 3.2 | 11.3 | 0.00 | 0.00 | 0.00 | 73 | 1028.2 |
| 20260508072503 | 11 | 138 | 3.2 | 9.7 | 0.00 | 0.00 | 0.00 | 74 | 1028.2 |
| 20260508072210 | 11 | 141 | 3.2 | 9.7 | 0.00 | 0.00 | 0.00 | 74 | 1028.2 |
| 20260508071503 | 10 | 146 | 3.2 | 9.7 | 0.00 | 0.00 | 0.00 | 75 | 1028.2 |
| 20260508071211 | 10 | 146 | 3.2 | 9.7 | 0.00 | 0.00 | 0.00 | 75 | 1028.2 |
| 20260508070504 | 10 | 150 | 3.2 | 8.0 | 0.00 | 0.00 | 0.00 | 76 | 1028.2 |
| 20260508070004 | 10 | 138 | 3.2 | 9.7 | 0.00 | 0.00 | 0.00 | 76 | 1028.2 |
| 20260508065503 | 10 | 136 | 4.8 | 9.7 | 0.00 | 0.00 | 0.00 | 77 | 1028.2 |
| 20260508065004 | 10 | 140 | 3.2 | 8.0 | 0.00 | 0.00 | 0.00 | 77 | 1028.2 |
| 20260508064711 | 10 | 137 | 3.2 | 6.4 | 0.00 | 0.00 | 0.00 | 77 | 1028.2 |
| 20260508064003 | 10 | 137 | 3.2 | 9.7 | 0.00 | 0.00 | 0.00 | 78 | 1028.2 |
| 20260508063503 | 10 | 137 | 3.2 | 6.4 | 0.00 | 0.00 | 0.00 | 78 | 1028.2 |
| 20260508063004 | 10 | 126 | 3.2 | 4.8 | 0.00 | 0.00 | 0.00 | 80 | 1028.2 |
| 20260508062504 | 9 | 129 | 3.2 | 4.8 | 0.00 | 0.00 | 0.00 | 83 | 1028.2 |
| 20260508062003 | 9 | 147 | 3.2 | 6.4 | 0.00 | 0.00 | 0.00 | 83 | 1028.2 |
| 20260508061503 | 9 | 145 | 3.2 | 6.4 | 0.00 | 0.00 | 0.00 | 85 | 1028.2 |
| 20260508061003 | 9 | 131 | 3.2 | 6.4 | 0.00 | 0.00 | 0.00 | 85 | 1028.2 |
| 20260508060503 | 9 | 133 | 3.2 | 6.4 | 0.00 | 0.00 | 0.00 | 86 | 1028.2 |
| 20260508060004 | 9 | 135 | 3.2 | 6.4 | 0.00 | 0.00 | 0.00 | 86 | 1028.2 |
| 20260508055504 | 9 | 129 | 3.2 | 6.4 | 0.00 | 0.00 | 0.00 | 86 | 1028.2 |
| 20260508055003 | 8 | 124 | 3.2 | 6.4 | 0.00 | 0.00 | 0.00 | 86 | 1028.2 |
| 20260508054503 | 8 | 119 | 3.2 | 6.4 | 0.00 | 0.00 | 0.00 | 86 | 1028.2 |
| 20260508054210 | 8 | 127 | 3.2 | 6.4 | 0.00 | 0.00 | 0.00 | 86 | 1028.2 |
| 20260508053711 | 8 | 126 | 3.2 | 4.8 | 0.00 | 0.00 | 0.00 | 87 | 1028.2 |
| 20260508053003 | 8 | 132 | 3.2 | 6.4 | 0.00 | 0.00 | 0.00 | 87 | 1028.2 |
| 20260508052504 | 8 | 135 | 3.2 | 6.4 | 0.00 | 0.00 | 0.00 | 87 | 1028.2 |
| 20260508052003 | 8 | 133 | 3.2 | 6.4 | 0.00 | 0.00 | 0.00 | 87 | 1028.2 |
| 20260508051503 | 8 | 136 | 3.2 | 6.4 | 0.00 | 0.00 | 0.00 | 87 | 1028.2 |
| 20260508051210 | 8 | 133 | 3.2 | 4.8 | 0.00 | 0.00 | 0.00 | 87 | 1028.2 |
| 20260508050711 | 8 | 129 | 3.2 | 6.4 | 0.00 | 0.00 | 0.00 | 87 | 1028.2 |
| 20260508050004 | 8 | 142 | 1.6 | 6.4 | 0.00 | 0.00 | 0.00 | 87 | 1028.2 |
| 20260508045711 | 8 | 138 | 1.6 | 4.8 | 0.00 | 0.00 | 0.00 | 87 | 1028.2 |
| 20260508045003 | 8 | 125 | 3.2 | 4.8 | 0.00 | 0.00 | 0.00 | 87 | 1028.2 |
| 20260508044503 | 8 | 122 | 3.2 | 6.4 | 0.00 | 0.00 | 0.00 | 86 | 1028.2 |
| 20260508044004 | 8 | 126 | 3.2 | 6.4 | 0.00 | 0.00 | 0.00 | 86 | 1028.2 |
| 20260508043503 | 8 | 135 | 3.2 | 6.4 | 0.00 | 0.00 | 0.00 | 86 | 1028.2 |
| 20260508043004 | 8 | 139 | 3.2 | 6.4 | 0.00 | 0.00 | 0.00 | 85 | 1028.2 |
| 20260508042711 | 8 | 137 | 3.2 | 6.4 | 0.00 | 0.00 | 0.00 | 85 | 1028.2 |
| 20260508042004 | 8 | 132 | 3.2 | 6.4 | 0.00 | 0.00 | 0.00 | 85 | 1028.2 |
| 20260508041711 | 8 | 131 | 3.2 | 6.4 | 0.00 | 0.00 | 0.00 | 85 | 1028.2 |
| 20260508041004 | 8 | 139 | 3.2 | 4.8 | 0.00 | 0.00 | 0.00 | 86 | 1028.2 |
| 20260508040711 | 8 | 127 | 3.2 | 8.0 | 0.00 | 0.00 | 0.00 | 86 | 1028.2 |
| 20260508040004 | 8 | 127 | 3.2 | 8.0 | 0.00 | 0.00 | 0.00 | 86 | 1028.2 |
| 20260508035503 | 8 | 135 | 3.2 | 6.4 | 0.00 | 0.00 | 0.00 | 86 | 1028.2 |
| 20260508035003 | 8 | 140 | 3.2 | 6.4 | 0.00 | 0.00 | 0.00 | 86 | 1028.2 |
| 20260508034503 | 8 | 135 | 3.2 | 6.4 | 0.00 | 0.00 | 0.00 | 86 | 1028.2 |
| 20260508034210 | 8 | 133 | 3.2 | 8.0 | 0.00 | 0.00 | 0.00 | 86 | 1028.2 |
| 20260508033503 | 8 | 128 | 3.2 | 8.0 | 0.00 | 0.00 | 0.00 | 86 | 1028.2 |
| 20260508033003 | 8 | 126 | 3.2 | 6.4 | 0.00 | 0.00 | 0.00 | 86 | 1028.2 |
| 20260508032711 | 8 | 126 | 3.2 | 6.4 | 0.00 | 0.00 | 0.00 | 86 | 1028.2 |
| 20260508032211 | 8 | 129 | 3.2 | 6.4 | 0.00 | 0.00 | 0.00 | 86 | 1028.2 |
| 20260508031711 | 8 | 133 | 3.2 | 6.4 | 0.00 | 0.00 | 0.00 | 86 | 1028.2 |
| 20260508031003 | 8 | 127 | 3.2 | 6.4 | 0.00 | 0.00 | 0.00 | 86 | 1028.2 |
| 20260508030504 | 8 | 134 | 3.2 | 6.4 | 0.00 | 0.00 | 0.00 | 86 | 1028.2 |
| 20260508030004 | 8 | 144 | 3.2 | 6.4 | 0.00 | 0.00 | 0.00 | 86 | 1028.2 |
| 20260508025503 | 8 | 139 | 3.2 | 6.4 | 0.00 | 0.00 | 0.00 | 86 | 1028.2 |
| 20260508025004 | 8 | 132 | 1.6 | 6.4 | 0.00 | 0.00 | 0.00 | 86 | 1028.2 |
| 20260508024503 | 8 | 134 | 3.2 | 8.0 | 0.00 | 0.00 | 0.00 | 86 | 1028.2 |
| 20260508024003 | 8 | 134 | 3.2 | 8.0 | 0.00 | 0.00 | 0.00 | 86 | 1028.2 |
| 20260508023503 | 8 | 131 | 3.2 | 8.0 | 0.00 | 0.00 | 0.00 | 86 | 1028.2 |
| 20260508023003 | 8 | 130 | 1.6 | 4.8 | 0.00 | 0.00 | 0.00 | 85 | 1028.2 |
| 20260508022504 | 8 | 136 | 1.6 | 4.8 | 0.00 | 0.00 | 0.00 | 85 | 1028.2 |
| 20260508022003 | 8 | 128 | 1.6 | 4.8 | 0.00 | 0.00 | 0.00 | 84 | 1028.2 |
| 20260508021503 | 8 | 119 | 1.6 | 6.4 | 0.00 | 0.00 | 0.00 | 84 | 1028.2 |
| 20260508021003 | 8 | 126 | 1.6 | 6.4 | 0.00 | 0.00 | 0.00 | 85 | 1028.2 |
| 20260508020504 | 8 | 133 | 1.6 | 3.2 | 0.00 | 0.00 | 0.00 | 84 | 1028.2 |
| 20260508020004 | 8 | 126 | 1.6 | 3.2 | 0.00 | 0.00 | 0.00 | 84 | 1028.2 |
| 20260508015504 | 8 | 144 | 0.0 | 3.2 | 0.00 | 0.00 | 0.00 | 84 | 1028.2 |
| 20260508015003 | 8 | 226 | 1.6 | 3.2 | 0.00 | 0.00 | 0.00 | 83 | 1028.2 |
| 20260508014504 | 8 | 208 | 1.6 | 4.8 | 0.00 | 0.00 | 0.00 | 83 | 1028.2 |
| 20260508014211 | 8 | 189 | 1.6 | 4.8 | 0.00 | 0.00 | 0.00 | 83 | 1028.2 |
| 20260508013504 | 8 | 220 | 1.6 | 3.2 | 0.00 | 0.00 | 0.00 | 84 | 1028.2 |
| 20260508013003 | 8 | 212 | 0.0 | 3.2 | 0.00 | 0.00 | 0.00 | 84 | 1028.2 |
| 20260508012503 | 8 | 187 | 0.0 | 3.2 | 0.00 | 0.00 | 0.00 | 84 | 1028.2 |
| 20260508012210 | 8 | 126 | 0.0 | 3.2 | 0.00 | 0.00 | 0.00 | 84 | 1028.2 |
| 20260508011503 | 8 | 215 | 1.6 | 3.2 | 0.00 | 0.00 | 0.00 | 84 | 1028.2 |
| 20260508011004 | 8 | 203 | 1.6 | 3.2 | 0.00 | 0.00 | 0.00 | 83 | 1028.2 |
| 20260508010711 | 8 | 192 | 1.6 | 3.2 | 0.00 | 0.00 | 0.00 | 83 | 1028.2 |
| 20260508010211 | 9 | 140 | 1.6 | 4.8 | 0.00 | 0.00 | 0.00 | 83 | 1028.2 |
| 20260508005503 | 9 | 126 | 1.6 | 6.4 | 0.00 | 0.00 | 0.00 | 83 | 1028.2 |
| 20260508005211 | 9 | 131 | 3.2 | 6.4 | 0.00 | 0.00 | 0.00 | 82 | 1028.2 |
| 20260508004503 | 9 | 135 | 3.2 | 6.4 | 0.00 | 0.00 | 0.00 | 82 | 1028.2 |
| 20260508004003 | 9 | 140 | 1.6 | 4.8 | 0.00 | 0.00 | 0.00 | 82 | 1028.2 |
| 20260508003711 | 9 | 146 | 1.6 | 4.8 | 0.00 | 0.00 | 0.00 | 82 | 1028.2 |
| 20260508003003 | 9 | 145 | 1.6 | 4.8 | 0.00 | 0.00 | 0.00 | 82 | 1028.2 |
| 20260508002503 | 9 | 137 | 1.6 | 4.8 | 0.00 | 0.00 | 0.00 | 82 | 1028.2 |
| 20260508002211 | 9 | 137 | 1.6 | 4.8 | 0.00 | 0.00 | 0.00 | 81 | 1028.2 |
| 20260508001503 | 9 | 146 | 1.6 | 4.8 | 0.00 | 0.00 | 0.00 | 81 | 1028.2 |
| 20260508001003 | 9 | 142 | 1.6 | 4.8 | 0.00 | 0.00 | 0.00 | 81 | 1028.2 |
| 20260508000503 | 9 | 146 | 1.6 | 4.8 | 0.00 | 0.00 | 0.00 | 81 | 1028.2 |
| 20260508000212 | 9 | 144 | 1.6 | 4.8 | 0.00 | 0.00 | 0.00 | 81 | 1028.2 |
| 20260507235713 | 9 | 149 | 1.6 | 3.2 | 0.00 | 0.00 | 0.00 | 81 | 1028.2 |
| 20260507235211 | 9 | 121 | 1.6 | 3.2 | 0.00 | 0.00 | 0.00 | 81 | 1028.2 |
| 20260507234503 | 10 | 150 | 1.6 | 4.8 | 0.00 | 0.00 | 0.00 | 80 | 1028.2 |
| 20260507234211 | 10 | 150 | 1.6 | 4.8 | 0.00 | 0.00 | 0.00 | 80 | 1028.2 |
| 20260507233503 | 10 | 153 | 1.6 | 4.8 | 0.00 | 0.00 | 0.00 | 80 | 1028.2 |
| 20260507233003 | 10 | 199 | 1.6 | 4.8 | 0.00 | 0.00 | 0.00 | 79 | 1028.2 |
| 20260507232503 | 10 | 206 | 1.6 | 4.8 | 0.00 | 0.00 | 0.00 | 79 | 1028.2 |
| 20260507232004 | 10 | 220 | 1.6 | 6.4 | 0.00 | 0.00 | 0.00 | 79 | 1028.2 |
| 20260507231503 | 10 | 193 | 1.6 | 6.4 | 0.00 | 0.00 | 0.00 | 78 | 1028.2 |
| 20260507231003 | 10 | 201 | 1.6 | 6.4 | 0.00 | 0.00 | 0.00 | 78 | 1028.2 |
| 20260507230503 | 10 | 229 | 1.6 | 6.4 | 0.00 | 0.00 | 0.00 | 78 | 1028.2 |
| 20260507230006 | 10 | 212 | 1.6 | 6.4 | 0.00 | 0.00 | 0.00 | 78 | 1028.2 |
| 20260507225503 | 10 | 176 | 1.6 | 4.8 | 0.00 | 0.00 | 0.00 | 78 | 1028.2 |
| 20260507225003 | 10 | 191 | 1.6 | 4.8 | 0.00 | 0.00 | 0.00 | 78 | 1028.2 |
| 20260507224504 | 10 | 188 | 1.6 | 6.4 | 0.00 | 0.00 | 0.00 | 77 | 1028.2 |
| 20260507224004 | 10 | 150 | 1.6 | 6.4 | 0.00 | 0.00 | 0.00 | 77 | 1028.2 |
| 20260507223503 | 10 | 172 | 1.6 | 4.8 | 0.00 | 0.00 | 0.00 | 77 | 1028.2 |
| 20260507223004 | 10 | 175 | 1.6 | 4.8 | 0.00 | 0.00 | 0.00 | 76 | 1028.2 |
| 20260507222710 | 10 | 147 | 1.6 | 4.8 | 0.00 | 0.00 | 0.00 | 76 | 1028.2 |
| 20260507222210 | 10 | 134 | 3.2 | 9.7 | 0.00 | 0.00 | 0.00 | 76 | 1028.2 |
| 20260507221503 | 10 | 134 | 1.6 | 6.4 | 0.00 | 0.00 | 0.00 | 75 | 1028.2 |
| 20260507221003 | 10 | 136 | 1.6 | 4.8 | 0.00 | 0.00 | 0.00 | 75 | 1028.2 |
| 20260507220503 | 10 | 185 | 1.6 | 4.8 | 0.00 | 0.00 | 0.00 | 75 | 1028.2 |
| 20260507220004 | 10 | 209 | 1.6 | 4.8 | 0.00 | 0.00 | 0.00 | 75 | 1028.2 |
| 20260507215503 | 10 | 212 | 1.6 | 4.8 | 0.00 | 0.00 | 0.00 | 75 | 1028.2 |
| 20260507215003 | 10 | 220 | 1.6 | 4.8 | 0.00 | 0.00 | 0.00 | 75 | 1028.2 |
| 20260507214503 | 10 | 201 | 0.0 | 3.2 | 0.00 | 0.00 | 0.00 | 75 | 1028.2 |
| 20260507214003 | 10 | 201 | 1.6 | 4.8 | 0.00 | 0.00 | 0.00 | 75 | 1028.2 |
| 20260507213711 | 10 | 219 | 1.6 | 4.8 | 0.00 | 0.00 | 0.00 | 74 | 1028.2 |
| 20260507213003 | 10 | 234 | 1.6 | 4.8 | 0.00 | 0.00 | 0.00 | 74 | 1028.2 |
| 20260507212503 | 10 | 251 | 0.0 | 3.2 | 0.00 | 0.00 | 0.00 | 74 | 1028.2 |
| 20260507212003 | 10 | 166 | 0.0 | 4.8 | 0.00 | 0.00 | 0.00 | 74 | 1028.2 |
| 20260507211711 | 10 | 145 | 1.6 | 4.8 | 0.00 | 0.00 | 0.00 | 74 | 1028.2 |
| 20260507211008 | 10 | 134 | 1.6 | 4.8 | 0.00 | 0.00 | 0.00 | 74 | 1028.2 |
| 20260507210503 | 10 | 142 | 1.6 | 4.8 | 0.00 | 0.00 | 0.00 | 73 | 1028.2 |
| 20260507210004 | 10 | 144 | 1.6 | 4.8 | 0.00 | 0.00 | 0.00 | 73 | 1028.2 |
| 20260507205503 | 10 | 137 | 1.6 | 4.8 | 0.00 | 0.00 | 0.00 | 73 | 1028.2 |
| 20260507205003 | 10 | 138 | 1.6 | 4.8 | 0.00 | 0.00 | 0.00 | 73 | 1028.2 |
| 20260507204503 | 10 | 139 | 1.6 | 6.4 | 0.00 | 0.00 | 0.00 | 73 | 1028.2 |
| 20260507204003 | 11 | 133 | 1.6 | 6.4 | 0.00 | 0.00 | 0.00 | 73 | 1028.2 |
| 20260507203503 | 11 | 127 | 1.6 | 4.8 | 0.00 | 0.00 | 0.00 | 73 | 1028.2 |
| 20260507203210 | 11 | 125 | 1.6 | 4.8 | 0.00 | 0.00 | 0.00 | 73 | 1028.2 |
| 20260507202503 | 11 | 143 | 1.6 | 6.4 | 0.00 | 0.00 | 0.00 | 73 | 1028.2 |
| 20260507202004 | 11 | 164 | 1.6 | 4.8 | 0.00 | 0.00 | 0.00 | 73 | 1028.2 |
| 20260507201503 | 11 | 162 | 1.6 | 4.8 | 0.00 | 0.00 | 0.00 | 73 | 1028.2 |
| 20260507201003 | 11 | 140 | 1.6 | 4.8 | 0.00 | 0.00 | 0.00 | 73 | 1028.2 |
| 20260507200503 | 11 | 151 | 1.6 | 8.0 | 0.00 | 0.00 | 0.00 | 73 | 1028.2 |
| 20260507200004 | 11 | 161 | 1.6 | 8.0 | 0.00 | 0.00 | 0.00 | 73 | 1028.2 |
| 20260507195504 | 10 | 155 | 1.6 | 4.8 | 0.00 | 0.00 | 0.00 | 74 | 1028.2 |
| 20260507195004 | 10 | 152 | 1.6 | 3.2 | 0.00 | 0.00 | 0.00 | 75 | 1028.2 |
| 20260507194503 | 11 | 156 | 1.6 | 3.2 | 0.00 | 0.00 | 0.00 | 75 | 1028.2 |
| 20260507194004 | 11 | 142 | 1.6 | 6.4 | 0.00 | 0.00 | 0.00 | 75 | 1028.2 |
| 20260507193503 | 11 | 136 | 3.2 | 8.0 | 0.00 | 0.00 | 0.00 | 75 | 1028.2 |
| 20260507193003 | 11 | 137 | 3.2 | 8.0 | 0.00 | 0.00 | 0.00 | 75 | 1028.2 |
| 20260507192503 | 11 | 142 | 1.6 | 6.4 | 0.00 | 0.00 | 0.00 | 75 | 1028.2 |
| 20260507192003 | 11 | 178 | 1.6 | 4.8 | 0.00 | 0.00 | 0.00 | 76 | 1028.2 |
| 20260507191503 | 11 | 212 | 1.6 | 6.4 | 0.00 | 0.00 | 0.00 | 75 | 1028.2 |
| 20260507191003 | 11 | 234 | 1.6 | 6.4 | 0.00 | 0.00 | 0.00 | 74 | 1028.2 |
| 20260507190504 | 11 | 229 | 1.6 | 4.8 | 0.00 | 0.00 | 0.00 | 73 | 1028.2 |
| 20260507190005 | 11 | 220 | 1.6 | 4.8 | 0.00 | 0.00 | 0.00 | 72 | 1028.2 |
| 20260507185504 | 11 | 240 | 1.6 | 6.4 | 0.00 | 0.00 | 0.00 | 71 | 1028.2 |
| 20260507185003 | 11 | 241 | 3.2 | 6.4 | 0.00 | 0.00 | 0.00 | 72 | 1028.2 |
| 20260507184504 | 11 | 236 | 3.2 | 6.4 | 0.00 | 0.00 | 0.00 | 72 | 1028.2 |
| 20260507184004 | 11 | 236 | 3.2 | 6.4 | 0.00 | 0.00 | 0.00 | 72 | 1028.2 |
| 20260507183503 | 11 | 240 | 3.2 | 8.0 | 0.00 | 0.00 | 0.00 | 72 | 1028.2 |
| 20260507183003 | 11 | 239 | 3.2 | 8.0 | 0.00 | 0.00 | 0.00 | 70 | 1028.2 |
| 20260507182711 | 12 | 233 | 3.2 | 6.4 | 0.00 | 0.00 | 0.00 | 69 | 1028.2 |
| 20260507182211 | 12 | 232 | 3.2 | 6.4 | 0.00 | 0.00 | 0.00 | 67 | 1028.2 |
| 20260507181711 | 12 | 236 | 3.2 | 9.7 | 0.00 | 0.00 | 0.00 | 65 | 1028.2 |
| 20260507181003 | 12 | 229 | 3.2 | 9.7 | 0.00 | 0.00 | 0.00 | 64 | 1028.2 |
| 20260507180503 | 12 | 227 | 3.2 | 8.0 | 0.00 | 0.00 | 0.00 | 63 | 1028.2 |
| 20260507175503 | 12 | 223 | 3.2 | 9.7 | 0.00 | 0.00 | 0.00 | 60 | 1028.2 |
| 20260507175003 | 13 | 209 | 3.2 | 9.7 | 0.00 | 0.00 | 0.00 | 57 | 1028.2 |
| 20260507174503 | 13 | 196 | 3.2 | 6.4 | 0.00 | 0.00 | 0.00 | 56 | 1028.2 |
| 20260507173211 | 13 | 188 | 3.2 | 8.0 | 0.00 | 0.00 | 0.00 | 55 | 1028.2 |
| 20260507172513 | 13 | 195 | 3.2 | 8.0 | 0.00 | 0.00 | 0.00 | 55 | 1028.2 |
| 20260507172013 | 13 | 192 | 3.2 | 9.7 | 0.00 | 0.00 | 0.00 | 54 | 1028.2 |
| 20260507171503 | 13 | 185 | 3.2 | 9.7 | 0.00 | 0.00 | 0.00 | 54 | 1028.2 |
| 20260507171003 | 13 | 185 | 3.2 | 8.0 | 0.00 | 0.00 | 0.00 | 53 | 1028.2 |
| 20260507170503 | 13 | 179 | 3.2 | 6.4 | 0.00 | 0.00 | 0.00 | 52 | 1028.2 |
| 20260507170211 | 13 | 180 | 3.2 | 6.4 | 0.00 | 0.00 | 0.00 | 51 | 1028.2 |
| 20260507165504 | 13 | 206 | 1.6 | 9.7 | 0.00 | 0.00 | 0.00 | 51 | 1028.2 |
| 20260507165210 | 13 | 211 | 3.2 | 9.7 | 0.00 | 0.00 | 0.00 | 51 | 1028.2 |
| 20260507164503 | 13 | 218 | 3.2 | 6.4 | 0.00 | 0.00 | 0.00 | 51 | 1028.2 |
| 20260507164003 | 13 | 203 | 1.6 | 6.4 | 0.00 | 0.00 | 0.00 | 51 | 1028.2 |
| 20260507163503 | 13 | 190 | 1.6 | 6.4 | 0.00 | 0.00 | 0.00 | 52 | 1028.2 |
| 20260507163003 | 13 | 188 | 1.6 | 6.4 | 0.00 | 0.00 | 0.00 | 52 | 1028.2 |
| 20260507162503 | 13 | 169 | 3.2 | 8.0 | 0.00 | 0.00 | 0.00 | 51 | 1028.2 |
| 20260507162003 | 14 | 160 | 3.2 | 8.0 | 0.00 | 0.00 | 0.00 | 51 | 1028.2 |
| 20260507161503 | 14 | 169 | 3.2 | 8.0 | 0.00 | 0.00 | 0.00 | 50 | 1028.2 |
| 20260507161004 | 14 | 189 | 3.2 | 8.0 | 0.00 | 0.00 | 0.00 | 51 | 1028.2 |
| 20260507160504 | 14 | 216 | 3.2 | 11.3 | 0.00 | 0.00 | 0.00 | 51 | 1028.2 |
| 20260507160211 | 14 | 204 | 3.2 | 11.3 | 0.00 | 0.00 | 0.00 | 51 | 1028.2 |
| 20260507155503 | 14 | 177 | 3.2 | 9.7 | 0.00 | 0.00 | 0.00 | 51 | 1028.2 |
| 20260507155003 | 15 | 188 | 4.8 | 12.9 | 0.00 | 0.00 | 0.00 | 50 | 1028.2 |
| 20260507154504 | 15 | 173 | 4.8 | 12.9 | 0.00 | 0.00 | 0.00 | 49 | 1028.2 |
| 20260507154003 | 15 | 178 | 3.2 | 11.3 | 0.00 | 0.00 | 0.00 | 50 | 1028.2 |
| 20260507153504 | 15 | 195 | 3.2 | 11.3 | 0.00 | 0.00 | 0.00 | 49 | 1028.2 |
| 20260507153003 | 15 | 175 | 3.2 | 11.3 | 0.00 | 0.00 | 0.00 | 50 | 1028.2 |
| 20260507152503 | 14 | 167 | 3.2 | 11.3 | 0.00 | 0.00 | 0.00 | 51 | 1028.2 |
| 20260507152003 | 15 | 185 | 3.2 | 9.7 | 0.00 | 0.00 | 0.00 | 50 | 1028.2 |
| 20260507151504 | 15 | 220 | 3.2 | 9.7 | 0.00 | 0.00 | 0.00 | 51 | 1028.2 |
| 20260507151003 | 15 | 227 | 3.2 | 9.7 | 0.00 | 0.00 | 0.00 | 51 | 1028.2 |
| 20260507150504 | 15 | 213 | 4.8 | 11.3 | 0.00 | 0.00 | 0.00 | 51 | 1028.2 |
| 20260507150211 | 15 | 200 | 4.8 | 11.3 | 0.00 | 0.00 | 0.00 | 50 | 1028.2 |
| 20260507145503 | 15 | 167 | 4.8 | 11.3 | 0.00 | 0.00 | 0.00 | 50 | 1028.2 |
| 20260507145003 | 15 | 177 | 3.2 | 9.7 | 0.00 | 0.00 | 0.00 | 51 | 1028.2 |
| 20260507144503 | 15 | 191 | 3.2 | 9.7 | 0.00 | 0.00 | 0.00 | 51 | 1028.2 |
| 20260507144003 | 15 | 213 | 4.8 | 11.3 | 0.00 | 0.00 | 0.00 | 51 | 1028.2 |
| 20260507143503 | 15 | 212 | 4.8 | 11.3 | 0.00 | 0.00 | 0.00 | 51 | 1028.2 |
| 20260507143211 | 15 | 206 | 4.8 | 11.3 | 0.00 | 0.00 | 0.00 | 50 | 1028.2 |
| 20260507142711 | 15 | 199 | 4.8 | 9.7 | 0.00 | 0.00 | 0.00 | 51 | 1028.2 |
| 20260507142003 | 15 | 191 | 3.2 | 9.7 | 0.00 | 0.00 | 0.00 | 50 | 1028.2 |
| 20260507141711 | 15 | 184 | 3.2 | 8.0 | 0.00 | 0.00 | 0.00 | 50 | 1028.2 |
| 20260507141003 | 15 | 210 | 4.8 | 11.3 | 0.00 | 0.00 | 0.00 | 50 | 1028.2 |
| 20260507140503 | 15 | 222 | 4.8 | 11.3 | 0.00 | 0.00 | 0.00 | 50 | 1028.2 |
| 20260507140004 | 15 | 216 | 4.8 | 9.7 | 0.00 | 0.00 | 0.00 | 49 | 1028.2 |
| 20260507135504 | 14 | 160 | 4.8 | 12.9 | 0.00 | 0.00 | 0.00 | 49 | 1028.2 |
| 20260507135003 | 14 | 155 | 4.8 | 12.9 | 0.00 | 0.00 | 0.00 | 50 | 1028.2 |
| 20260507134503 | 15 | 175 | 4.8 | 12.9 | 0.00 | 0.00 | 0.00 | 51 | 1028.2 |
| 20260507134003 | 14 | 164 | 4.8 | 12.9 | 0.00 | 0.00 | 0.00 | 51 | 1028.2 |
| 20260507133503 | 14 | 177 | 4.8 | 11.3 | 0.00 | 0.00 | 0.00 | 52 | 1028.2 |
| 20260507133004 | 14 | 160 | 4.8 | 11.3 | 0.00 | 0.00 | 0.00 | 52 | 1028.2 |
| 20260507132711 | 14 | 156 | 4.8 | 14.5 | 0.00 | 0.00 | 0.00 | 53 | 1028.2 |
| 20260507132004 | 14 | 195 | 4.8 | 14.5 | 0.00 | 0.00 | 0.00 | 54 | 1028.2 |
| 20260507131503 | 13 | 187 | 4.8 | 12.9 | 0.00 | 0.00 | 0.00 | 55 | 1028.2 |
| 20260507131004 | 13 | 155 | 4.8 | 11.3 | 0.00 | 0.00 | 0.00 | 55 | 1028.2 |
| 20260507130503 | 13 | 149 | 4.8 | 9.7 | 0.00 | 0.00 | 0.00 | 57 | 1028.2 |
| 20260507130004 | 13 | 176 | 3.2 | 9.7 | 0.00 | 0.00 | 0.00 | 56 | 1028.2 |
| 20260507125503 | 13 | 166 | 3.2 | 9.7 | 0.00 | 0.00 | 0.00 | 56 | 1028.2 |
| 20260507125004 | 13 | 140 | 4.8 | 14.5 | 0.00 | 0.00 | 0.00 | 58 | 1028.2 |
| 20260507124503 | 13 | 160 | 4.8 | 14.5 | 0.00 | 0.00 | 0.00 | 58 | 1028.2 |
| 20260507124003 | 13 | 185 | 4.8 | 14.5 | 0.00 | 0.00 | 0.00 | 59 | 1028.2 |
| 20260507123503 | 13 | 173 | 4.8 | 14.5 | 0.00 | 0.00 | 0.00 | 57 | 1028.2 |
| 20260507123003 | 13 | 176 | 4.8 | 14.5 | 0.00 | 0.00 | 0.00 | 60 | 1028.2 |
| 20260507122504 | 12 | 151 | 4.8 | 14.5 | 0.00 | 0.00 | 0.00 | 63 | 1028.2 |
| 20260507122004 | 12 | 132 | 4.8 | 14.5 | 0.00 | 0.00 | 0.00 | 65 | 1028.2 |
| 20260507121504 | 12 | 142 | 4.8 | 14.5 | 0.00 | 0.00 | 0.00 | 64 | 1028.2 |
| 20260507121004 | 12 | 144 | 4.8 | 12.9 | 0.00 | 0.00 | 0.00 | 65 | 1028.2 |
| 20260507120504 | 12 | 160 | 4.8 | 11.3 | 0.00 | 0.00 | 0.00 | 65 | 1028.2 |
| 20260507120004 | 12 | 203 | 4.8 | 11.3 | 0.00 | 0.00 | 0.00 | 64 | 1028.2 |
| 20260507115503 | 12 | 197 | 4.8 | 12.9 | 0.00 | 0.00 | 0.00 | 64 | 1028.2 |
| 20260507115003 | 12 | 166 | 4.8 | 12.9 | 0.00 | 0.00 | 0.00 | 65 | 1028.2 |
| 20260507114504 | 12 | 152 | 4.8 | 11.3 | 0.00 | 0.00 | 0.00 | 66 | 1028.2 |
| 20260507114003 | 11 | 169 | 4.8 | 11.3 | 0.00 | 0.00 | 0.00 | 66 | 1028.2 |
| 20260507113503 | 11 | 179 | 4.8 | 11.3 | 0.00 | 0.00 | 0.00 | 68 | 1028.2 |
| 20260507113004 | 11 | 155 | 3.2 | 11.3 | 0.00 | 0.00 | 0.00 | 68 | 1028.2 |
| 20260507112711 | 11 | 141 | 3.2 | 11.3 | 0.00 | 0.00 | 0.00 | 69 | 1028.2 |
| 20260507112004 | 11 | 140 | 4.8 | 11.3 | 0.00 | 0.00 | 0.00 | 71 | 1028.2 |
| 20260507111504 | 10 | 140 | 4.8 | 14.5 | 0.00 | 0.00 | 0.00 | 70 | 1028.2 |
| 20260507111210 | 10 | 140 | 4.8 | 14.5 | 0.00 | 0.00 | 0.00 | 70 | 1028.2 |
| 20260507110503 | 10 | 153 | 4.8 | 12.9 | 0.00 | 0.00 | 0.00 | 69 | 1028.2 |
| 20260507110211 | 10 | 149 | 4.8 | 11.3 | 0.00 | 0.00 | 0.00 | 70 | 1028.2 |
| 20260507105503 | 10 | 135 | 4.8 | 16.1 | 0.00 | 0.00 | 0.00 | 72 | 1028.2 |
| 20260507105004 | 10 | 140 | 4.8 | 16.1 | 0.00 | 0.00 | 0.00 | 73 | 1028.2 |
| 20260507104504 | 10 | 147 | 4.8 | 11.3 | 0.00 | 0.00 | 0.00 | 73 | 1028.2 |
| 20260507104003 | 10 | 145 | 4.8 | 11.3 | 0.00 | 0.00 | 0.00 | 74 | 1028.2 |
| 20260507103503 | 9 | 144 | 4.8 | 11.3 | 0.00 | 0.00 | 0.00 | 76 | 1028.2 |
| 20260507103003 | 9 | 135 | 6.4 | 14.5 | 0.00 | 0.00 | 0.00 | 77 | 1028.2 |
| 20260507102503 | 9 | 132 | 4.8 | 14.5 | 0.00 | 0.00 | 0.00 | 77 | 1028.2 |
| 20260507102003 | 9 | 136 | 4.8 | 14.5 | 0.00 | 0.00 | 0.00 | 77 | 1028.2 |
| 20260507101503 | 8 | 135 | 6.4 | 14.5 | 0.00 | 0.00 | 0.00 | 78 | 1028.2 |
| 20260507101003 | 8 | 134 | 6.4 | 14.5 | 0.00 | 0.00 | 0.00 | 79 | 1028.2 |
| 20260507100503 | 8 | 130 | 4.8 | 12.9 | 0.00 | 0.00 | 0.00 | 79 | 1028.2 |
| 20260507100211 | 8 | 132 | 4.8 | 12.9 | 0.00 | 0.00 | 0.00 | 79 | 1028.2 |
| 20260507095503 | 8 | 132 | 6.4 | 14.5 | 0.00 | 0.00 | 0.00 | 79 | 1028.2 |
| 20260507095003 | 8 | 128 | 6.4 | 12.9 | 0.00 | 0.00 | 0.00 | 81 | 1028.2 |
| 20260507094503 | 8 | 134 | 6.4 | 12.9 | 0.00 | 0.00 | 0.00 | 82 | 1028.2 |
| 20260507094004 | 8 | 135 | 4.8 | 12.9 | 0.00 | 0.00 | 0.00 | 82 | 1028.2 |
| 20260507093503 | 8 | 136 | 4.8 | 11.3 | 0.00 | 0.00 | 0.00 | 82 | 1028.2 |
| 20260507093004 | 8 | 137 | 6.4 | 12.9 | 0.00 | 0.00 | 0.00 | 82 | 1028.2 |
| 20260507092711 | 8 | 137 | 6.4 | 12.9 | 0.00 | 0.00 | 0.00 | 82 | 1028.2 |
| 20260507092003 | 8 | 133 | 6.4 | 14.5 | 0.00 | 0.00 | 0.00 | 84 | 1028.2 |
| 20260507091503 | 8 | 135 | 6.4 | 14.5 | 0.00 | 0.00 | 0.00 | 83 | 1028.2 |
| 20260507091003 | 7 | 139 | 6.4 | 12.9 | 0.00 | 0.00 | 0.00 | 83 | 1028.2 |
| 20260507090503 | 7 | 141 | 6.4 | 14.5 | 0.00 | 0.00 | 0.00 | 84 | 1028.2 |
| 20260507090004 | 7 | 137 | 6.4 | 14.5 | 0.00 | 0.00 | 0.00 | 84 | 1028.2 |
| 20260507085710 | 7 | 137 | 6.4 | 12.9 | 0.00 | 0.00 | 0.00 | 84 | 1028.2 |